Hourly Weather Roundup
Issued by NWS Central Illinois

Current Version | Previous Version | Text Only | Print | Product List | Glossary On
Versions: 1 2 3 4 5 6 7 8 9 10 11 12 13 14 15 16 17 18 19 20 21 22 23 24 25 26 27 28 29 30 31 32 33 34 35 36 37 38 39 40 41 42 43 44 45 46 47 48 49 50
000
NZUS43 KILX 220810
HWRILX

AREA WEATHER ROUNDUP
NATIONAL WEATHER SERVICE, LINCOLN IL
300 AM CDT TUE JUL 22 2014


CITY           SKY/WX    TMP DP  RH WIND       PRES   REMARKS
BLOOMINGTON    CLEAR     65  62  90 S6        30.10R
CHAMPAIGN      CLEAR     66  63  90 S6        30.09R
DECATUR        CLEAR     68  63  84 S5        30.08S
FLORA            N/A     64  63  94 CALM      30.09R FOG
GALESBURG      CLEAR     71  67  88 S5        30.04F
JACKSONVILLE   CLEAR     73  67  82 S8        30.07S
LACON          CLEAR     69  64  83 S5        30.04S
LAWRENCEVILLE  CLEAR     67  65  93 CALM      30.08S FOG
LITCHFIELD     CLEAR     65  63  94 S3        30.08S
$$


CITY           SKY/WX    TMP DP  RH WIND       PRES   REMARKS
LINCOLN        CLEAR     67  64  90 CALM      30.05S
MACOMB         CLEAR     70  67  91 S8        30.05F
MATTOON        CLEAR     66  63  90 S5        30.08R
MT CARMEL AP   CLEAR     64  63  94 CALM      30.08R FOG
OLNEY-NOBLE AP CLEAR     63  61  94 CALM      30.08S FOG
PARIS            N/A     61  61  98 CALM      30.10R FOG
PEORIA         CLEAR     71  65  81 S7        30.06S
PONTIAC        CLEAR     66  64  94 SE5       30.07S FOG
RANTOUL        CLEAR     66  63  89 CALM      30.09S FOG
ROBINSON       FOG       64  63  97 CALM      30.09S VSB 1/4
SPRINGFIELD    CLEAR     70  65  84 S6        30.08R
TAYLORVILLE    CLEAR     63  63 100 CALM      30.08S FOG
$$

...REGIONAL REPORTS...


CITY           SKY/WX    TMP DP  RH WIND       PRES   REMARKS
CHICAGO O`HARE CLEAR     72  63  73 S7        30.05S
KANKAKEE       CLEAR     64  63  97 CALM      30.09R FOG
MOLINE         CLEAR     74  66  76 S9        30.00F
MOUNT VERNON   CLEAR     63  59  88 CALM      30.09R
PITTSFIELD     CLEAR     70  66  86 S5        30.07S
QUINCY         CLEAR     72  67  84 S6        30.04S
ROCKFORD       CLEAR     71  65  81 S10       30.04F
$$


CITY           SKY/WX    TMP DP  RH WIND       PRES   REMARKS
BURLINGTON     CLEAR     74  68  81 S12       30.01F
CEDAR RAPIDS   CLEAR     74  67  78 S14       29.97S
DES MOINES     MOCLDY    83  74  74 S13       29.90F HX  89
KIRKSVILLE     PTCLDY    74  68  81 S9        30.02F
OTTUMWA        CLEAR     74  69  85 S12       29.97S
ST LOUIS       CLEAR     75  66  73 SW5       30.08R
$$


CITY           SKY/WX    TMP DP  RH WIND       PRES   REMARKS
TERRE HAUTE    PTCLDY    63  61  93 CALM      30.09R FOG
EVANSVILLE     CLEAR     70  66  87 CALM      30.07S FOG
INDIANAPOLIS   CLEAR     71  64  78 CALM      30.09S
LAFAYETTE      PTCLDY    63  63 100 CALM      30.08S FOG
MADISON        CLEAR     74  68  81 S9        29.99F
MILWAUKEE      CLEAR     72  65  78 SW8       30.02S
$$




USA.gov is the U.S. government's official web portal to all federal, state and local government web resources and services.